sat.trackr.live / text

‹ back to catalog

STARLINK-31973

NORAD 59943 · 2024-106X

PAYLOAD ACTIVE UNKNOWN

§ Identity

Operator
Country
US
Launch date
2024-06-01
Launch site
AFETR
Launch vehicle
Mass (kg)
RCS (m²)

Purposes: comms

External: N2YO · Heavens-Above · Gunter

§ Orbital elements

Epoch: 2026-09-20T19:46:01.411680Z

Period
94.27 min
Inclination
43.0022°
Eccentricity
0.0001106
Mean motion
15.27575767 rev/d
Perigee alt
482.3 km
Apogee alt
483.8 km
Semi-major
6,861.2 km
B*
5.2310e-6
RAAN
310.7173°
Arg perigee
274.2865°
Mean anomaly
85.7860°
Rev number
13,036

§ Raw data

STARLINK-319731 59943U 24106X   26263.82362745 -.00000118  00000+0  52310-5 0  99952 59943  43.0022 310.7173 0001106 274.2865  85.7860 15.27575767130366

JSON: /api/v1/satellites/59943 · /tle

For live sub-satellite position, see the globe view (requires WebGL).

§ Visibility from observer

Set your observer location to see the next 7 days of passes ≥ 10°. The values pass through the URL so the page stays shareable.

No JS? Fill the form by hand. The geolocation button needs JavaScript.